Tracking 33195 objects as of 8-Feb-2026
HD Live streaming from Space Station
objects crossing your sky now

STARLINK-35772

Track STARLINK-35772 now!
10-day predictions
STARLINK-35772 is classified as:


NORAD ID: 66976
Int'l Code: 2025-288T
Perigee: 449.8 km
Apogee: 452.4 km
Inclination: 43.0 °
Period: 93.5 minutes
Semi major axis: 6822 km
RCS: Unknown
Launch date: December 8, 2025
Source: United States (US)
Launch site: AIR FORCE EASTERN TEST RANGE (AFETR)
Your satellite tracking list
Your tracking list is empty




NASA's NSSDC Master Catalog

Two Line Element Set (TLE):
1 66976U 25288T   26036.86693431  .00078969  00000-0  18771-2 0  9991
2 66976  42.9995 206.4093 0001913 272.3234  87.7403 15.40716681 10385
Source of the keplerian elements: AFSPC